| time (UTC) | temp F | wind direction | speed knots | gust knots | rain 1hr in | rain 24hr in | rain mn in | humidity % | barometer mb |
| 20260903165855 | 94 | 229 | 11.3 | 15.6 | 0.00 | 0.00 | 0.00 | 33 | 1016.1 |
| 20260903165349 | 93 | 215 | 14.8 | 16.5 | 0.00 | 0.00 | 0.00 | 33 | 1016.2 |
| 20260903164844 | 93 | 234 | 11.3 | 13.9 | 0.00 | 0.00 | 0.00 | 33 | 1016.2 |
| 20260903164339 | 94 | 221 | 9.6 | 14.8 | 0.00 | 0.00 | 0.00 | 33 | 1015.9 |
| 20260903163838 | 94 | 223 | 10.4 | 16.5 | 0.00 | 0.00 | 0.00 | 33 | 1016.1 |
| 20260903163335 | 93 | 217 | 12.2 | 14.8 | 0.00 | 0.00 | 0.00 | 33 | 1016.2 |
| 20260903162831 | 93 | 216 | 13.9 | 16.5 | 0.00 | 0.00 | 0.00 | 33 | 1016.1 |
| 20260903162327 | 93 | 216 | 14.8 | 17.4 | 0.00 | 0.00 | 0.00 | 34 | 1016.1 |
| 20260903161823 | 92 | 211 | 9.6 | 12.2 | 0.00 | 0.00 | 0.00 | 35 | 1016.0 |
| 20260903161318 | 92 | 211 | 8.7 | 12.2 | 0.00 | 0.00 | 0.00 | 35 | 1016.0 |
| 20260903160814 | 92 | 212 | 12.2 | 14.8 | 0.00 | 0.00 | 0.00 | 36 | 1015.9 |
| 20260903160312 | 91 | 217 | 11.3 | 13.0 | 0.00 | 0.00 | 0.00 | 37 | 1016.3 |
| 20260903155811 | 91 | 227 | 8.7 | 11.3 | 0.00 | 0.00 | 0.00 | 38 | 1016.2 |
| 20260903155307 | 90 | 239 | 9.6 | 12.2 | 0.00 | 0.00 | 0.00 | 39 | 1016.3 |
| 20260903154801 | 89 | 219 | 7.0 | 13.9 | 0.00 | 0.00 | 0.00 | 40 | 1016.3 |
| 20260903154258 | 89 | 239 | 5.2 | 13.9 | 0.00 | 0.00 | 0.00 | 40 | 1016.1 |
| 20260903153753 | 88 | 214 | 11.3 | 11.3 | 0.00 | 0.00 | 0.00 | 41 | 1016.2 |
| 20260903153249 | 87 | 226 | 7.8 | 13.0 | 0.00 | 0.00 | 0.00 | 43 | 1016.1 |
| 20260903152745 | 87 | 213 | 8.7 | 13.0 | 0.00 | 0.00 | 0.00 | 43 | 1016.2 |
| 20260903152241 | 86 | 237 | 7.0 | 10.4 | 0.00 | 0.00 | 0.00 | 44 | 1016.3 |
| 20260903151741 | 85 | 217 | 7.8 | 10.4 | 0.00 | 0.00 | 0.00 | 45 | 1016.3 |
| 20260903151236 | 85 | 213 | 9.6 | 10.4 | 0.00 | 0.00 | 0.00 | 46 | 1016.2 |
| 20260903150731 | 82 | 227 | 5.2 | 9.6 | 0.00 | 0.00 | 0.00 | 50 | 1016.1 |
| 20260903150225 | 82 | 226 | 6.1 | 8.7 | 0.00 | 0.00 | 0.00 | 50 | 1016.2 |
| 20260903145725 | 81 | 217 | 5.2 | 9.6 | 0.00 | 0.00 | 0.00 | 49 | 1016.2 |
| 20260903145221 | 81 | 215 | 7.8 | 11.3 | 0.00 | 0.00 | 0.00 | 49 | 1016.3 |
| 20260903144719 | 80 | 224 | 7.0 | 10.4 | 0.00 | 0.00 | 0.00 | 50 | 1016.5 |
| 20260903144215 | 80 | 211 | 10.4 | 11.3 | 0.00 | 0.00 | 0.00 | 51 | 1016.3 |
| 20260903143711 | 79 | 198 | 7.0 | 10.4 | 0.00 | 0.00 | 0.00 | 52 | 1016.3 |
| 20260903143207 | 78 | 216 | 8.7 | 12.2 | 0.00 | 0.00 | 0.00 | 52 | 1016.3 |
| 20260903142702 | 78 | 200 | 7.0 | 8.7 | 0.00 | 0.00 | 0.00 | 53 | 1016.3 |
| 20260903142159 | 77 | 206 | 7.0 | 8.7 | 0.00 | 0.00 | 0.00 | 53 | 1016.3 |
| 20260903141654 | 77 | 208 | 5.2 | 10.4 | 0.00 | 0.00 | 0.00 | 53 | 1016.3 |
| 20260903141149 | 76 | 204 | 8.7 | 8.7 | 0.00 | 0.00 | 0.00 | 54 | 1016.6 |
| 20260903140644 | 76 | 212 | 7.0 | 7.8 | 0.00 | 0.00 | 0.00 | 56 | 1016.6 |
| 20260903140140 | 75 | 206 | 4.3 | 8.7 | 0.00 | 0.00 | 0.00 | 57 | 1016.6 |
| 20260903135635 | 75 | 198 | 6.1 | 7.0 | 0.00 | 0.00 | 0.00 | 57 | 1016.2 |
| 20260903135130 | 75 | 197 | 5.2 | 8.7 | 0.00 | 0.00 | 0.00 | 57 | 1016.3 |
| 20260903134628 | 75 | 191 | 7.8 | 8.7 | 0.00 | 0.00 | 0.00 | 57 | 1016.3 |
| 20260903134120 | 75 | 195 | 7.0 | 9.6 | 0.00 | 0.00 | 0.00 | 56 | 1016.5 |
| 20260903133617 | 75 | 189 | 4.3 | 9.6 | 0.00 | 0.00 | 0.00 | 57 | 1016.2 |
| 20260903133113 | 74 | 195 | 4.3 | 10.4 | 0.00 | 0.00 | 0.00 | 57 | 1016.2 |
| 20260903132608 | 73 | 182 | 5.2 | 8.7 | 0.00 | 0.00 | 0.00 | 58 | 1016.2 |
| 20260903132107 | 73 | 203 | 5.2 | 7.8 | 0.00 | 0.00 | 0.00 | 60 | 1016.3 |
| 20260903131602 | 72 | 188 | 5.2 | 7.0 | 0.00 | 0.00 | 0.00 | 60 | 1016.2 |
| 20260903131101 | 71 | 170 | 3.5 | 7.0 | 0.00 | 0.00 | 0.00 | 62 | 1016.1 |
| 20260903130556 | 70 | 178 | 5.2 | 6.1 | 0.00 | 0.00 | 0.00 | 64 | 1015.9 |
| 20260903130051 | 69 | 178 | 5.2 | 6.1 | 0.00 | 0.00 | 0.00 | 65 | 1016.1 |
| 20260903125549 | 69 | 185 | 3.5 | 7.0 | 0.00 | 0.00 | 0.00 | 66 | 1016.1 |
| 20260903125044 | 69 | 204 | 3.5 | 5.2 | 0.00 | 0.00 | 0.00 | 66 | 1016.0 |
| 20260903124539 | 68 | 198 | 3.5 | 5.2 | 0.00 | 0.00 | 0.00 | 66 | 1015.7 |
| 20260903124038 | 68 | 208 | 5.2 | 5.2 | 0.00 | 0.00 | 0.00 | 66 | 1015.7 |
| 20260903123538 | 68 | 207 | 5.2 | 6.1 | 0.00 | 0.00 | 0.00 | 66 | 1015.9 |
| 20260903123037 | 68 | 210 | 4.3 | 7.0 | 0.00 | 0.00 | 0.00 | 66 | 1015.7 |
| 20260903122531 | 68 | 201 | 5.2 | 7.0 | 0.00 | 0.00 | 0.00 | 65 | 1015.8 |
| 20260903122031 | 68 | 204 | 5.2 | 7.0 | 0.00 | 0.00 | 0.00 | 65 | 1015.6 |
| 20260903121526 | 69 | 204 | 3.5 | 7.8 | 0.00 | 0.00 | 0.00 | 64 | 1015.7 |
| 20260903121022 | 68 | 200 | 5.2 | 7.0 | 0.00 | 0.00 | 0.00 | 65 | 1015.5 |
| 20260903120520 | 68 | 190 | 4.3 | 7.0 | 0.00 | 0.00 | 0.00 | 64 | 1015.5 |
| 20260903120015 | 69 | 182 | 7.0 | 7.8 | 0.00 | 0.00 | 0.00 | 63 | 1015.5 |
| 20260903115513 | 70 | 194 | 6.1 | 8.7 | 0.00 | 0.00 | 0.00 | 61 | 1015.3 |
| 20260903115008 | 70 | 198 | 8.7 | 9.6 | 0.00 | 0.00 | 0.00 | 60 | 1015.6 |
| 20260903114504 | 70 | 196 | 5.2 | 8.7 | 0.00 | 0.00 | 0.00 | 61 | 1015.6 |
| 20260903113959 | 68 | 202 | 5.2 | 6.1 | 0.00 | 0.00 | 0.00 | 62 | 1015.7 |
| 20260903113455 | 68 | 180 | 4.3 | 6.1 | 0.00 | 0.00 | 0.00 | 63 | 1015.5 |
| 20260903112950 | 69 | 170 | 5.2 | 5.2 | 0.00 | 0.00 | 0.00 | 61 | 1015.5 |
| 20260903112446 | 69 | 184 | 4.3 | 8.7 | 0.00 | 0.00 | 0.00 | 61 | 1015.6 |
| 20260903111945 | 68 | 178 | 5.2 | 5.2 | 0.00 | 0.00 | 0.00 | 64 | 1015.6 |
| 20260903111444 | 68 | 157 | 3.5 | 4.3 | 0.00 | 0.00 | 0.00 | 64 | 1015.5 |
| 20260903110941 | 68 | 161 | 3.5 | 5.2 | 0.00 | 0.00 | 0.00 | 63 | 1015.5 |
| 20260903110437 | 69 | 187 | 3.5 | 5.2 | 0.00 | 0.00 | 0.00 | 62 | 1015.3 |
| 20260903105932 | 69 | 171 | 5.2 | 8.7 | 0.00 | 0.00 | 0.00 | 60 | 1015.1 |
| 20260903105427 | 69 | 169 | 6.1 | 7.8 | 0.00 | 0.00 | 0.00 | 61 | 1015.2 |
| 20260903104926 | 69 | 183 | 5.2 | 7.8 | 0.00 | 0.00 | 0.00 | 62 | 1015.2 |
| 20260903104425 | 69 | 187 | 3.5 | 6.1 | 0.00 | 0.00 | 0.00 | 62 | 1015.5 |
| 20260903103922 | 69 | 169 | 5.2 | 7.0 | 0.00 | 0.00 | 0.00 | 62 | 1015.6 |
| 20260903103418 | 69 | 186 | 4.3 | 7.0 | 0.00 | 0.00 | 0.00 | 62 | 1015.7 |
| 20260903102913 | 69 | 185 | 7.0 | 7.0 | 0.00 | 0.00 | 0.00 | 61 | 1015.7 |
| 20260903102408 | 69 | 185 | 4.3 | 6.1 | 0.00 | 0.00 | 0.00 | 61 | 1015.7 |
| 20260903101908 | 69 | 189 | 4.3 | 6.1 | 0.00 | 0.00 | 0.00 | 62 | 1015.8 |
| 20260903101402 | 69 | 185 | 3.5 | 5.2 | 0.00 | 0.00 | 0.00 | 62 | 1015.7 |
| 20260903100858 | 69 | 190 | 3.5 | 5.2 | 0.00 | 0.00 | 0.00 | 63 | 1015.8 |
| 20260903100354 | 69 | 190 | 5.2 | 5.2 | 0.00 | 0.00 | 0.00 | 62 | 1015.8 |
| 20260903095850 | 69 | 175 | 4.3 | 7.8 | 0.00 | 0.00 | 0.00 | 62 | 1015.7 |
| 20260903095350 | 69 | 180 | 5.2 | 7.8 | 0.00 | 0.00 | 0.00 | 61 | 1015.9 |
| 20260903094845 | 69 | 161 | 5.2 | 6.1 | 0.00 | 0.00 | 0.00 | 63 | 1015.6 |
| 20260903094340 | 68 | 187 | 3.5 | 4.3 | 0.00 | 0.00 | 0.00 | 64 | 1015.8 |
| 20260903093836 | 68 | 196 | 2.6 | 3.5 | 0.00 | 0.00 | 0.00 | 65 | 1015.9 |
| 20260903093331 | 68 | 171 | 3.5 | 4.3 | 0.00 | 0.00 | 0.00 | 65 | 1016.0 |
| 20260903092826 | 68 | 163 | 2.6 | 3.5 | 0.00 | 0.00 | 0.00 | 66 | 1016.0 |
| 20260903092321 | 68 | 163 | 3.5 | 4.3 | 0.00 | 0.00 | 0.00 | 66 | 1015.9 |
| 20260903091819 | 68 | 169 | 4.3 | 5.2 | 0.00 | 0.00 | 0.00 | 64 | 1015.8 |
| 20260903091313 | 69 | 175 | 2.6 | 4.3 | 0.00 | 0.00 | 0.00 | 63 | 1016.1 |
| 20260903090809 | 69 | 182 | 3.5 | 5.2 | 0.00 | 0.00 | 0.00 | 62 | 1015.7 |
| 20260903090309 | 70 | 189 | 4.3 | 7.0 | 0.00 | 0.00 | 0.00 | 61 | 1015.9 |
| 20260903085807 | 70 | 189 | 5.2 | 6.1 | 0.00 | 0.00 | 0.00 | 60 | 1015.9 |
| 20260903085305 | 70 | 192 | 2.6 | 5.2 | 0.00 | 0.00 | 0.00 | 59 | 1015.8 |
| 20260903084800 | 71 | 206 | 4.3 | 5.2 | 0.00 | 0.00 | 0.00 | 58 | 1016.0 |
| 20260903084254 | 72 | 185 | 3.5 | 5.2 | 0.00 | 0.00 | 0.00 | 57 | 1016.0 |
| 20260903083750 | 73 | 181 | 4.3 | 7.0 | 0.00 | 0.00 | 0.00 | 56 | 1016.0 |
| 20260903083250 | 73 | 160 | 6.1 | 9.6 | 0.00 | 0.00 | 0.00 | 55 | 1016.0 |
| 20260903082749 | 74 | 171 | 7.8 | 10.4 | 0.00 | 0.00 | 0.00 | 54 | 1015.9 |
| 20260903082240 | 74 | 163 | 7.8 | 10.4 | 0.00 | 0.00 | 0.00 | 54 | 1015.8 |
| 20260903081739 | 74 | 163 | 8.7 | 12.2 | 0.00 | 0.00 | 0.00 | 53 | 1015.8 |
| 20260903081230 | 75 | 171 | 8.7 | 13.0 | 0.00 | 0.00 | 0.00 | 52 | 1015.7 |
| 20260903080725 | 75 | 169 | 9.6 | 13.9 | 0.00 | 0.00 | 0.00 | 51 | 1015.9 |
| 20260903080223 | 76 | 180 | 9.6 | 13.0 | 0.00 | 0.00 | 0.00 | 51 | 1015.7 |
| 20260903075722 | 76 | 180 | 11.3 | 14.8 | 0.00 | 0.00 | 0.00 | 51 | 1015.8 |
| 20260903075212 | 76 | 185 | 7.0 | 13.9 | 0.00 | 0.00 | 0.00 | 50 | 1015.8 |
| 20260903074710 | 76 | 170 | 13.0 | 14.8 | 0.00 | 0.00 | 0.00 | 51 | 1015.9 |
| 20260903074207 | 75 | 162 | 7.0 | 13.0 | 0.00 | 0.00 | 0.00 | 51 | 1015.8 |
| 20260903073701 | 75 | 168 | 8.7 | 13.0 | 0.00 | 0.00 | 0.00 | 51 | 1015.7 |
| 20260903073156 | 74 | 172 | 9.6 | 10.4 | 0.00 | 0.00 | 0.00 | 52 | 1015.8 |
| 20260903072652 | 75 | 167 | 8.7 | 10.4 | 0.00 | 0.00 | 0.00 | 52 | 1015.9 |
| 20260903072149 | 75 | 153 | 7.0 | 10.4 | 0.00 | 0.00 | 0.00 | 51 | 1016.0 |
| 20260903071644 | 75 | 170 | 8.7 | 10.4 | 0.00 | 0.00 | 0.00 | 52 | 1015.7 |
| 20260903071139 | 74 | 154 | 7.0 | 11.3 | 0.00 | 0.00 | 0.00 | 53 | 1015.9 |
| 20260903070634 | 75 | 163 | 7.0 | 10.4 | 0.00 | 0.00 | 0.00 | 53 | 1015.9 |
| 20260903070130 | 75 | 155 | 7.8 | 10.4 | 0.00 | 0.00 | 0.00 | 53 | 1016.0 |
| 20260903065629 | 75 | 165 | 7.8 | 10.4 | 0.00 | 0.00 | 0.00 | 52 | 1015.9 |
| 20260903065124 | 75 | 160 | 7.8 | 10.4 | 0.00 | 0.00 | 0.00 | 52 | 1015.8 |
| 20260903064624 | 76 | 149 | 8.7 | 9.6 | 0.00 | 0.00 | 0.00 | 51 | 1016.0 |
| 20260903064119 | 75 | 168 | 7.0 | 11.3 | 0.00 | 0.00 | 0.00 | 52 | 1016.0 |
| 20260903063615 | 75 | 157 | 7.8 | 11.3 | 0.00 | 0.00 | 0.00 | 52 | 1016.0 |
| 20260903063110 | 76 | 156 | 7.8 | 11.3 | 0.00 | 0.00 | 0.00 | 52 | 1016.0 |
| 20260903062605 | 75 | 154 | 5.2 | 11.3 | 0.00 | 0.00 | 0.00 | 53 | 1015.9 |
| 20260903062101 | 75 | 150 | 10.4 | 10.4 | 0.00 | 0.00 | 0.00 | 54 | 1016.0 |
| 20260903061556 | 74 | 166 | 7.0 | 7.8 | 0.00 | 0.00 | 0.00 | 56 | 1016.0 |
| 20260903061055 | 74 | 170 | 5.2 | 8.7 | 0.00 | 0.00 | 0.00 | 56 | 1015.9 |
| 20260903060555 | 74 | 166 | 7.8 | 7.8 | 0.00 | 0.00 | 0.00 | 56 | 1016.1 |
| 20260903060050 | 73 | 173 | 5.2 | 7.8 | 0.00 | 0.00 | 0.00 | 58 | 1015.9 |
| 20260903055547 | 73 | 163 | 5.2 | 6.1 | 0.00 | 0.00 | 0.00 | 60 | 1015.9 |
| 20260903055047 | 73 | 160 | 4.3 | 6.1 | 0.00 | 0.00 | 0.00 | 60 | 1015.9 |
| 20260903054542 | 73 | 164 | 5.2 | 7.0 | 0.00 | 0.00 | 0.00 | 59 | 1016.0 |
| 20260903054037 | 74 | 158 | 5.2 | 7.8 | 0.00 | 0.00 | 0.00 | 58 | 1015.8 |
| 20260903053532 | 73 | 159 | 6.1 | 7.8 | 0.00 | 0.00 | 0.00 | 59 | 1015.9 |
| 20260903053029 | 73 | 160 | 5.2 | 7.0 | 0.00 | 0.00 | 0.00 | 60 | 1016.1 |
| 20260903052524 | 73 | 158 | 5.2 | 6.1 | 0.00 | 0.00 | 0.00 | 60 | 1016.0 |
| 20260903052019 | 74 | 172 | 4.3 | 5.2 | 0.00 | 0.00 | 0.00 | 58 | 1015.8 |
| 20260903051514 | 75 | 165 | 7.0 | 7.0 | 0.00 | 0.00 | 0.00 | 57 | 1015.9 |
| 20260903051010 | 75 | 160 | 4.3 | 7.0 | 0.00 | 0.00 | 0.00 | 55 | 1015.9 |
| 20260903050509 | 77 | 163 | 5.2 | 7.8 | 0.00 | 0.00 | 0.00 | 52 | 1016.0 |
| 20260903050004 | 78 | 160 | 8.7 | 9.6 | 0.00 | 0.02 | 0.02 | 51 | 1016.0 |
| 20260903045459 | 79 | 155 | 9.6 | 10.4 | 0.00 | 0.02 | 0.02 | 48 | 1016.0 |
| 20260903044955 | 80 | 161 | 9.6 | 12.2 | 0.00 | 0.02 | 0.02 | 48 | 1015.8 |
| 20260903044451 | 79 | 148 | 9.6 | 12.2 | 0.00 | 0.02 | 0.02 | 49 | 1015.8 |
| 20260903043947 | 78 | 152 | 7.0 | 9.6 | 0.00 | 0.02 | 0.02 | 52 | 1015.8 |
| 20260903043442 | 78 | 145 | 6.1 | 8.7 | 0.00 | 0.02 | 0.02 | 54 | 1015.7 |
| 20260903042940 | 78 | 155 | 4.3 | 9.6 | 0.00 | 0.02 | 0.02 | 55 | 1015.8 |
| 20260903042436 | 78 | 136 | 4.3 | 8.7 | 0.00 | 0.02 | 0.02 | 55 | 1015.7 |
| 20260903041932 | 78 | 138 | 7.0 | 10.4 | 0.00 | 0.02 | 0.02 | 55 | 1015.8 |
| 20260903041428 | 78 | 142 | 6.1 | 11.3 | 0.00 | 0.02 | 0.02 | 56 | 1015.5 |
| 20260903040924 | 77 | 144 | 5.2 | 9.6 | 0.00 | 0.02 | 0.02 | 57 | 1015.7 |
| 20260903040423 | 78 | 134 | 5.2 | 9.6 | 0.00 | 0.02 | 0.02 | 57 | 1015.7 |
| 20260903035919 | 78 | 143 | 3.5 | 7.0 | 0.00 | 0.02 | 0.02 | 57 | 1016.0 |
| 20260903035415 | 78 | 155 | 5.2 | 7.8 | 0.00 | 0.02 | 0.02 | 56 | 1015.9 |
| 20260903034914 | 78 | 143 | 5.2 | 9.6 | 0.00 | 0.02 | 0.02 | 56 | 1016.0 |
| 20260903034409 | 78 | 136 | 7.0 | 7.8 | 0.00 | 0.02 | 0.02 | 56 | 1015.8 |
| 20260903033905 | 78 | 135 | 5.2 | 8.7 | 0.00 | 0.02 | 0.02 | 57 | 1015.8 |
| 20260903033400 | 78 | 140 | 5.2 | 8.7 | 0.00 | 0.02 | 0.02 | 57 | 1015.8 |
| 20260903032854 | 79 | 148 | 7.8 | 8.7 | 0.00 | 0.02 | 0.02 | 55 | 1015.7 |
| 20260903032350 | 79 | 156 | 6.1 | 8.7 | 0.00 | 0.02 | 0.02 | 54 | 1016.0 |
| 20260903031845 | 79 | 142 | 5.2 | 7.8 | 0.00 | 0.02 | 0.02 | 55 | 1015.8 |
| 20260903031344 | 79 | 145 | 5.2 | 8.7 | 0.00 | 0.02 | 0.02 | 55 | 1015.7 |
| 20260903030840 | 79 | 140 | 4.3 | 8.7 | 0.00 | 0.02 | 0.02 | 55 | 1015.9 |
| 20260903030335 | 79 | 141 | 5.2 | 8.7 | 0.00 | 0.02 | 0.02 | 54 | 1015.8 |
| 20260903025826 | 79 | 145 | 3.5 | 7.8 | 0.00 | 0.02 | 0.02 | 54 | 1015.5 |
| 20260903025321 | 78 | 137 | 5.2 | 7.0 | 0.00 | 0.02 | 0.02 | 54 | 1015.3 |
| 20260903024821 | 79 | 141 | 6.1 | 8.7 | 0.00 | 0.02 | 0.02 | 54 | 1015.5 |
| 20260903024320 | 79 | 134 | 5.2 | 8.7 | 0.00 | 0.02 | 0.02 | 53 | 1015.5 |
| 20260903023816 | 79 | 139 | 7.8 | 7.8 | 0.00 | 0.02 | 0.02 | 53 | 1015.3 |
| 20260903023312 | 78 | 141 | 6.1 | 7.0 | 0.00 | 0.02 | 0.02 | 55 | 1015.3 |
| 20260903022806 | 78 | 132 | 3.5 | 7.8 | 0.00 | 0.02 | 0.02 | 55 | 1015.2 |
| 20260903022306 | 78 | 135 | 2.6 | 4.3 | 0.00 | 0.02 | 0.02 | 56 | 1015.6 |
| 20260903021759 | 78 | 105 | 2.6 | 5.2 | 0.00 | 0.02 | 0.02 | 55 | 1015.6 |
| 20260903021254 | 79 | 142 | 4.3 | 5.2 | 0.00 | 0.02 | 0.02 | 53 | 1015.5 |
| 20260903020749 | 80 | 138 | 4.3 | 7.0 | 0.00 | 0.02 | 0.02 | 51 | 1015.6 |
| 20260903020243 | 80 | 129 | 5.2 | 6.1 | 0.00 | 0.02 | 0.02 | 51 | 1015.5 |
| 20260903015739 | 80 | 126 | 4.3 | 7.0 | 0.00 | 0.02 | 0.02 | 51 | 1015.2 |
| 20260903015234 | 80 | 137 | 2.6 | 5.2 | 0.00 | 0.02 | 0.02 | 52 | 1015.5 |
| 20260903014729 | 80 | 142 | 3.5 | 5.2 | 0.00 | 0.02 | 0.02 | 51 | 1015.5 |
| 20260903014229 | 80 | 133 | 3.5 | 7.0 | 0.00 | 0.02 | 0.02 | 52 | 1015.5 |
| 20260903013724 | 80 | 132 | 4.3 | 5.2 | 0.00 | 0.02 | 0.02 | 53 | 1015.3 |
| 20260903013223 | 80 | 138 | 3.5 | 5.2 | 0.00 | 0.02 | 0.02 | 53 | 1015.3 |
| 20260903012721 | 81 | 148 | 5.2 | 5.2 | 0.00 | 0.02 | 0.02 | 52 | 1015.2 |
| 20260903012215 | 81 | 97 | 1.7 | 4.3 | 0.00 | 0.02 | 0.02 | 50 | 1015.5 |
| 20260903011710 | 82 | 126 | 2.6 | 4.3 | 0.00 | 0.02 | 0.02 | 50 | 1015.7 |
| 20260903011204 | 82 | 109 | 1.7 | 5.2 | 0.00 | 0.02 | 0.02 | 49 | 1015.3 |
| 20260903010659 | 82 | 110 | 1.7 | 5.2 | 0.00 | 0.02 | 0.02 | 49 | 1015.3 |
| 20260903010159 | 82 | 123 | 2.6 | 7.0 | 0.00 | 0.02 | 0.02 | 49 | 1015.2 |
| 20260903005653 | 82 | 122 | 3.5 | 5.2 | 0.00 | 0.02 | 0.02 | 49 | 1015.5 |
| 20260903005148 | 82 | 108 | 2.6 | 4.3 | 0.00 | 0.02 | 0.02 | 49 | 1015.3 |
| 20260903004644 | 82 | 141 | 4.3 | 8.7 | 0.00 | 0.02 | 0.02 | 48 | 1015.5 |
| 20260903004138 | 83 | 136 | 2.6 | 9.6 | 0.00 | 0.02 | 0.02 | 47 | 1015.2 |
| 20260903003633 | 83 | 128 | 7.0 | 8.7 | 0.00 | 0.02 | 0.02 | 47 | 1015.6 |
| 20260903003123 | 83 | 115 | 2.6 | 6.1 | 0.00 | 0.02 | 0.02 | 48 | 1015.6 |
| 20260903002618 | 84 | 133 | 3.5 | 8.7 | 0.00 | 0.02 | 0.02 | 47 | 1015.5 |
| 20260903002112 | 84 | 134 | 7.8 | 10.4 | 0.00 | 0.02 | 0.02 | 47 | 1015.8 |
| 20260903001607 | 84 | 134 | 7.8 | 9.6 | 0.00 | 0.02 | 0.02 | 47 | 1015.5 |
| 20260903001101 | 84 | 141 | 7.0 | 11.3 | 0.00 | 0.02 | 0.02 | 48 | 1015.6 |
| 20260903000557 | 84 | 138 | 7.0 | 13.0 | 0.00 | 0.02 | 0.02 | 47 | 1015.7 |
| 20260903000056 | 84 | 145 | 11.3 | 15.6 | 0.00 | 0.02 | 0.02 | 47 | 1015.7 |
| 20260902235555 | 84 | 141 | 7.0 | 13.0 | 0.00 | 0.02 | 0.02 | 50 | 1015.7 |
| 20260902235050 | 85 | 152 | 6.1 | 13.0 | 0.00 | 0.02 | 0.02 | 48 | 1015.8 |
| 20260902234545 | 86 | 156 | 6.1 | 13.9 | 0.00 | 0.02 | 0.02 | 46 | 1015.9 |
| 20260902234043 | 87 | 138 | 8.7 | 15.6 | 0.00 | 0.02 | 0.02 | 45 | 1015.8 |
| 20260902233538 | 88 | 150 | 7.8 | 17.4 | 0.00 | 0.02 | 0.02 | 43 | 1015.7 |
| 20260902233033 | 87 | 145 | 8.7 | 13.0 | 0.00 | 0.02 | 0.02 | 46 | 1015.9 |
| 20260902232532 | 86 | 152 | 7.0 | 12.2 | 0.00 | 0.02 | 0.02 | 46 | 1015.9 |
| 20260902232026 | 87 | 155 | 7.0 | 8.7 | 0.00 | 0.02 | 0.02 | 48 | 1015.9 |
| 20260902231521 | 86 | 138 | 8.7 | 13.0 | 0.00 | 0.02 | 0.02 | 48 | 1015.9 |
| 20260902231020 | 86 | 159 | 8.7 | 12.2 | 0.00 | 0.02 | 0.02 | 47 | 1015.8 |
| 20260902230515 | 86 | 145 | 7.8 | 14.8 | 0.00 | 0.02 | 0.02 | 47 | 1015.8 |
| 20260902230014 | 87 | 164 | 10.4 | 13.9 | 0.00 | 0.02 | 0.02 | 46 | 1015.9 |
| 20260902225510 | 87 | 162 | 9.6 | 11.3 | 0.00 | 0.02 | 0.02 | 47 | 1015.9 |
| 20260902225004 | 87 | 157 | 6.1 | 11.3 | 0.00 | 0.02 | 0.02 | 46 | 1015.7 |
| 20260902224502 | 87 | 159 | 3.5 | 11.3 | 0.00 | 0.02 | 0.02 | 46 | 1015.8 |
| 20260902223954 | 88 | 157 | 8.7 | 11.3 | 0.00 | 0.02 | 0.02 | 44 | 1015.8 |
| 20260902223449 | 87 | 155 | 10.4 | 11.3 | 0.00 | 0.02 | 0.02 | 47 | 1015.9 |
| 20260902222948 | 88 | 141 | 6.1 | 12.2 | 0.00 | 0.02 | 0.02 | 47 | 1016.1 |
| 20260902222446 | 89 | 178 | 11.3 | 12.2 | 0.00 | 0.02 | 0.02 | 44 | 1016.0 |
| 20260902221941 | 88 | 162 | 6.1 | 9.6 | 0.00 | 0.02 | 0.02 | 47 | 1015.9 |
| 20260902221439 | 88 | 153 | 6.1 | 9.6 | 0.00 | 0.02 | 0.02 | 47 | 1016.0 |
| 20260902220935 | 88 | 139 | 6.1 | 9.6 | 0.00 | 0.02 | 0.02 | 48 | 1015.8 |
| 20260902220430 | 87 | 160 | 5.2 | 11.3 | 0.00 | 0.02 | 0.02 | 49 | 1016.1 |
| 20260902215925 | 86 | 150 | 7.8 | 13.9 | 0.02 | 0.02 | 0.02 | 48 | 1016.1 |
| 20260902215420 | 87 | 146 | 4.3 | 5.2 | 0.02 | 0.02 | 0.02 | 45 | 1016.2 |
| 20260902214916 | 86 | 134 | 7.8 | 10.4 | 0.00 | 0.01 | 0.01 | 43 | 1016.2 |
| 20260902214414 | 85 | 131 | 5.2 | 7.0 | 0.00 | 0.01 | 0.01 | 44 | 1016.0 |
| 20260902213909 | 83 | 163 | 9.6 | 13.0 | 0.00 | 0.01 | 0.01 | 49 | 1016.0 |
| 20260902213406 | 78 | 158 | 13.0 | 20.0 | 0.02 | 0.01 | 0.01 | 56 | 1016.1 |
| 20260902212904 | 75 | 175 | 12.2 | 20.0 | 0.07 | 0.01 | 0.01 | 67 | 1016.1 |
| 20260902212400 | 78 | 199 | 13.0 | 21.7 | 0.05 | 0.01 | 0.01 | 65 | 1016.7 |
| 20260902211856 | 82 | 215 | 22.6 | 25.2 | 0.00 | 0.00 | 0.00 | 48 | 1016.2 |
| 20260902211352 | 81 | 211 | 20.0 | 24.3 | 0.00 | 0.00 | 0.00 | 50 | 1016.1 |
| 20260902210841 | 84 | 208 | 14.8 | 21.7 | 0.00 | 0.00 | 0.00 | 61 | 1016.0 |
| 20260902210341 | 84 | 228 | 13.0 | 18.2 | 0.00 | 0.00 | 0.00 | 47 | 1016.0 |
| 20260902205839 | 87 | 226 | 9.6 | 20.0 | 0.00 | 0.00 | 0.00 | 42 | 1016.1 |
| 20260902205334 | 89 | 218 | 10.4 | 21.7 | 0.00 | 0.00 | 0.00 | 40 | 1016.0 |
| 20260902204830 | 92 | 207 | 9.6 | 16.5 | 0.00 | 0.00 | 0.00 | 35 | 1015.9 |
| 20260902204324 | 93 | 192 | 4.3 | 8.7 | 0.00 | 0.00 | 0.00 | 34 | 1016.1 |
| 20260902203820 | 93 | 180 | 9.6 | 12.2 | 0.00 | 0.00 | 0.00 | 34 | 1016.0 |
| 20260902203315 | 94 | 177 | 13.0 | 14.8 | 0.00 | 0.00 | 0.00 | 33 | 1016.1 |
| 20260902202814 | 95 | 199 | 12.2 | 14.8 | 0.00 | 0.00 | 0.00 | 33 | 1016.0 |
| 20260902202311 | 95 | 205 | 7.8 | 14.8 | 0.00 | 0.00 | 0.00 | 32 | 1016.3 |
| 20260902201807 | 94 | 209 | 13.0 | 16.5 | 0.00 | 0.00 | 0.00 | 33 | 1016.2 |
| 20260902201306 | 96 | 217 | 12.2 | 13.9 | 0.00 | 0.00 | 0.00 | 32 | 1016.5 |
| 20260902200802 | 94 | 205 | 7.0 | 11.3 | 0.00 | 0.00 | 0.00 | 33 | 1016.7 |
| 20260902200257 | 95 | 217 | 15.6 | 20.0 | 0.00 | 0.00 | 0.00 | 33 | 1016.5 |
| 20260902195752 | 96 | 162 | 9.6 | 14.8 | 0.00 | 0.00 | 0.00 | 32 | 1016.8 |
| 20260902195251 | 94 | 209 | 9.6 | 15.6 | 0.00 | 0.00 | 0.00 | 34 | 1017.1 |
| 20260902194746 | 93 | 204 | 7.0 | 12.2 | 0.00 | 0.00 | 0.00 | 34 | 1017.1 |
| 20260902194241 | 93 | 197 | 9.6 | 15.6 | 0.00 | 0.00 | 0.00 | 34 | 1017.0 |
| 20260902193737 | 94 | 219 | 16.5 | 18.2 | 0.00 | 0.00 | 0.00 | 34 | 1017.2 |
| 20260902193232 | 94 | 210 | 9.6 | 12.2 | 0.00 | 0.00 | 0.00 | 34 | 1017.1 |
| 20260902192731 | 93 | 227 | 5.2 | 13.0 | 0.00 | 0.00 | 0.00 | 34 | 1017.3 |
| 20260902192230 | 95 | 209 | 7.0 | 12.2 | 0.00 | 0.00 | 0.00 | 33 | 1017.2 |
| 20260902191725 | 96 | 210 | 12.2 | 16.5 | 0.00 | 0.00 | 0.00 | 32 | 1017.3 |
| 20260902191219 | 94 | 215 | 13.9 | 22.6 | 0.00 | 0.00 | 0.00 | 34 | 1017.5 |
| 20260902190714 | 93 | 245 | 3.5 | 14.8 | 0.00 | 0.00 | 0.00 | 36 | 1017.6 |
| 20260902190209 | 95 | 188 | 10.4 | 13.9 | 0.00 | 0.00 | 0.00 | 34 | 1017.8 |
| 20260902185705 | 94 | 206 | 11.3 | 15.6 | 0.00 | 0.00 | 0.00 | 33 | 1017.9 |
| 20260902185202 | 94 | 206 | 8.7 | 14.8 | 0.00 | 0.00 | 0.00 | 35 | 1017.7 |
| 20260902184656 | 94 | 209 | 11.3 | 15.6 | 0.00 | 0.00 | 0.00 | 35 | 1017.8 |
| 20260902184151 | 94 | 174 | 7.8 | 15.6 | 0.00 | 0.00 | 0.00 | 35 | 1018.1 |
| 20260902183647 | 95 | 187 | 13.0 | 17.4 | 0.00 | 0.00 | 0.00 | 35 | 1018.1 |
| 20260902183143 | 93 | 200 | 10.4 | 11.3 | 0.00 | 0.00 | 0.00 | 35 | 1018.4 |
| 20260902182639 | 93 | 237 | 7.0 | 16.5 | 0.00 | 0.00 | 0.00 | 36 | 1018.6 |
| 20260902182135 | 92 | 211 | 9.6 | 15.6 | 0.00 | 0.00 | 0.00 | 36 | 1018.7 |
| 20260902181631 | 93 | 202 | 7.8 | 17.4 | 0.00 | 0.00 | 0.00 | 36 | 1018.5 |
| 20260902181131 | 94 | 172 | 8.7 | 16.5 | 0.00 | 0.00 | 0.00 | 36 | 1018.7 |
| 20260902180630 | 92 | 211 | 8.7 | 11.3 | 0.00 | 0.00 | 0.00 | 37 | 1018.8 |
| 20260902180126 | 91 | 191 | 11.3 | 14.8 | 0.00 | 0.00 | 0.00 | 38 | 1019.0 |
| 20260902175626 | 91 | 203 | 8.7 | 13.9 | 0.00 | 0.00 | 0.00 | 37 | 1018.9 |
| 20260902175122 | 91 | 203 | 10.4 | 21.7 | 0.00 | 0.00 | 0.00 | 37 | 1018.9 |
| 20260902174618 | 91 | 198 | 12.2 | 13.9 | 0.00 | 0.00 | 0.00 | 38 | 1018.9 |
| 20260902174114 | 93 | 185 | 14.8 | 18.2 | 0.00 | 0.00 | 0.00 | 36 | 1018.9 |
| 20260902173608 | 94 | 208 | 12.2 | 17.4 | 0.00 | 0.00 | 0.00 | 36 | 1018.9 |
| 20260902173103 | 93 | 181 | 12.2 | 17.4 | 0.00 | 0.00 | 0.00 | 36 | 1019.1 |
| 20260902172557 | 92 | 202 | 18.2 | 19.1 | 0.00 | 0.00 | 0.00 | 37 | 1019.1 |
| 20260902172051 | 92 | 211 | 13.0 | 13.9 | 0.00 | 0.00 | 0.00 | 38 | 1019.2 |
| 20260902171547 | 92 | 193 | 9.6 | 17.4 | 0.00 | 0.00 | 0.00 | 38 | 1019.2 |
| 20260902171043 | 92 | 212 | 11.3 | 14.8 | 0.00 | 0.00 | 0.00 | 37 | 1019.4 |
| 20260902170537 | 91 | 214 | 13.0 | 17.4 | 0.00 | 0.00 | 0.00 | 39 | 1019.4 |
| 20260902170033 | 89 | 202 | 10.4 | 14.8 | 0.00 | 0.00 | 0.00 | 40 | 1019.4 |